Weather History for KFMY - September, 2011

Change the Weather History Date:

Wednesday, September 14, 2011

  Actual Average Record
Temperature  
Mean Temperature 84 °F 83 °F  
Max Temperature 93 °F 91 °F 95 °F (1984)
Min Temperature 74 °F 75 °F 68 °F (1918)
Degree Days  
Heating Degree Days 0 0  
Month to date heating degree days 0 0  
Since 1 July heating degree days 0 0  
Cooling Degree Days 19 18  
Month to date cooling degree days 264 252  
Year to date cooling degree days 3237 2976  
Growing Degree Days 33 (Base 50)    
Moisture  
Dew Point 68 °F    
Average Humidity 65    
Maximum Humidity 94    
Minimum Humidity 36    
Precipitation  
Precipitation 0.00 in 0.30 in 5.35 in (1979)
Month to date precipitation 5.97 4.42  
Year to date precipitation 50.48 45.49  
Sea Level Pressure  
Sea Level Pressure 29.93 in    
Wind  
Wind Speed 4 mph (NE)    
Max Wind Speed 13 mph    
Max Gust Speed 16 mph    
Visibility 10 miles    
Events      
T = Trace of Precipitation, MM = Missing Value Source: NWS Daily Summary

Daily Weather History Graph

Daily Weather History Graph

Search for Another Location

Airport or City:

Trip Planner

Search our weather history database for the weather conditions in past years. The results will help you decide how hot, cold, wet, or windy it might be!

Date:

Astronomy

Sep. 14, 2011 Rise Set
Actual Time 7:12 AM EDT 7:33 PM EDT
Civil Twilight 6:49 AM EDT 7:56 PM EDT
Nautical Twilight 6:22 AM EDT 8:23 PM EDT
Astronomical Twilight 5:54 AM EDT 8:50 PM EDT
Moon 8:38 PM EDT (9/14) 9:02 AM EDT (9/14)
Length of Visible Light 13h 07m
Length of Day
12h 20m
Waning Gibbous, 95% of the Moon is Illuminated
Sep 14
Waning Gibbous
Sep 20
Last Quarter
Sep 27
New
Oct 3
First Quarter
Oct 11
Full

Hourly Weather History & Observations

Time (EDT) Temp. Heat Index Dew Point Humidity Pressure Visibility Wind Dir Wind Speed Gust Speed Precip Events Conditions
12:53 AM 78.1 °F - 71.1 °F 79% 29.96 in 10.0 mi East 3.5 mph - N/A   Mostly Cloudy
1:53 AM 78.1 °F - 72.0 °F 81% 29.94 in 10.0 mi Calm Calm - N/A   Mostly Cloudy
2:53 AM 77.0 °F - 73.0 °F 88% 29.92 in 10.0 mi East 3.5 mph - N/A   Scattered Clouds
3:53 AM 75.9 °F - 73.0 °F 91% 29.91 in 10.0 mi Calm Calm - N/A   Mostly Cloudy
4:53 AM 75.0 °F - 71.1 °F 87% 29.91 in 10.0 mi Calm Calm - N/A   Scattered Clouds
6:53 AM 75.0 °F - 71.1 °F 87% 29.93 in 8.0 mi NE 3.5 mph - N/A   Clear
7:53 AM 75.9 °F - 72.0 °F 87% 29.94 in 7.0 mi NE 4.6 mph - N/A   Clear
8:53 AM 79.0 °F - 72.0 °F 79% 29.95 in 10.0 mi ENE 5.8 mph - N/A   Clear
9:53 AM 82.9 °F 87.5 °F 71.1 °F 67% 29.96 in 10.0 mi NE 8.1 mph - N/A   Clear
10:53 AM 84.9 °F 88.8 °F 69.1 °F 59% 29.96 in 10.0 mi NE 8.1 mph - N/A   Clear
11:53 AM 87.1 °F 90.6 °F 68.0 °F 53% 29.96 in 10.0 mi East 6.9 mph - N/A   Clear
12:53 PM 89.1 °F 92.1 °F 66.9 °F 48% 29.95 in 10.0 mi Variable 5.8 mph - N/A   Clear
1:53 PM 91.0 °F 93.0 °F 64.9 °F 42% 29.93 in 10.0 mi ENE 10.4 mph - N/A   Partly Cloudy
2:53 PM 89.1 °F 89.3 °F 62.1 °F 40% 29.91 in 10.0 mi NE 6.9 mph - N/A   Partly Cloudy
3:53 PM 91.0 °F 91.5 °F 62.1 °F 38% 29.90 in 10.0 mi NE 9.2 mph - N/A   Scattered Clouds
4:53 PM 90.0 °F 89.7 °F 60.1 °F 37% 29.89 in 10.0 mi Calm Calm - N/A   Mostly Cloudy
5:53 PM 91.0 °F 90.5 °F 60.1 °F 35% 29.89 in 10.0 mi NE 6.9 mph - N/A   Partly Cloudy
7:53 PM 84.0 °F 87.0 °F 68.0 °F 58% 29.89 in 10.0 mi NW 5.8 mph - N/A   Partly Cloudy
8:53 PM 82.9 °F 88.0 °F 72.0 °F 69% 29.90 in 10.0 mi NNW 3.5 mph - N/A   Scattered Clouds
9:53 PM 82.0 °F 84.5 °F 66.9 °F 60% 29.93 in 10.0 mi East 3.5 mph - N/A   Partly Cloudy
10:53 PM 79.0 °F - 69.1 °F 72% 29.94 in 10.0 mi East 3.5 mph - N/A   Clear
11:53 PM 78.1 °F - 69.1 °F 74% 29.95 in 10.0 mi East 4.6 mph - N/A   Clear